Regional Weather Roundup
Issued by NWS La Crosse, WI

Home | Current Version | Previous Version | Text Only | Print | Product List | Glossary On
Versions: 1 2 3 4 5 6 7 8 9 10 11 12 13 14 15 16 17 18 19 20 21 22 23 24 25 26 27
000
ASUS43 KARX 052159
RWRARX

HOURLY WEATHER FOR THE UPPER MISSISSIPPI RIVER VALLEY
NATIONAL WEATHER SERVICE LA CROSSE WI
400 PM CST MON DEC 05 2022

NOTE: "FAIR" indicates few or no clouds below 12,000 feet with no
significant weater and/or obstructions to visibility.

MNZ077-085>088-093>096-052300
Southeast Minnesota

CITY           SKY/WX    TMP DP  RH WIND       PRES   REMARKS
ROCHESTER      CLOUDY    29  18  63 N14       29.89R WCI  18
WINONA         CLOUDY    32  19  59 NW9       29.91R WCI  24
AUSTIN         MOCLDY    30  21  69 N8        29.88S WCI  23
ALBERT LEA     MOCLDY    28  21  74 N10G16    29.90R WCI  19
DODGE CENTER   MOCLDY    28  18  64 N17       29.89R WCI  16
PRESTON        MOCLDY    30  19  64 N13       29.89R WCI  20
OWATONNA       CLOUDY    28  19  69 N10       29.91R WCI  19
FARIBAULT      MOCLDY    28  19  69 NW8       29.92R WCI  20
$$

WIZ041-042-053>056-061-052300
Southwest Wisconsin

CITY           SKY/WX    TMP DP  RH WIND       PRES   REMARKS
LA CROSSE      CLOUDY    35  20  54 NW12      29.89R WCI  27
SPARTA         NOT AVBL
VIROQUA        CLOUDY    35  24  64 N7        29.83R WCI  29
WIS DELLS      CLOUDY    31  30  94 SW3       29.83R
PRAIRIE DU CHI CLOUDY    35  29  78 W3        29.86R
BOSCOBEL       CLOUDY    36  30  79 CALM      29.85R
LONE ROCK      NOT AVBL
PLATTEVILLE    CLOUDY    36  23  61 N6        29.82S WCI  31
$$

WIZ017-030-034>036-043>045-052300
Central Wisconsin

CITY           SKY/WX    TMP DP  RH WIND       PRES   REMARKS
MEDFORD        CLOUDY    28  17  62 W7        29.84R WCI  21
WAUSAU         CLOUDY    32  17  54 W7        29.83R WCI  26
BLACK RVR FLS  MOCLDY    33  19  56 N7        29.87R WCI  27
WIS RAPIDS     CLOUDY    34  21  59 NW7       29.86R WCI  28
MARSHFIELD     CLOUDY    30  19  63 NW12      29.85R WCI  20
MAUSTON        FAIR      37  20  51 NW5       29.84R WCI  33
CAMP DOUGLAS   NOT AVBL
WAUTOMA        MOCLDY    35  22  58 NW3       29.84R
$$

IAZ008>011-017>019-029-030-052300
Northeast Iowa

CITY           SKY/WX    TMP DP  RH WIND       PRES   REMARKS
WATERLOO       CLOUDY    37  25  61 N9        29.86R WCI  30
DUBUQUE        MOCLDY    37  24  59 W5        29.83R WCI  33
DECORAH        CLOUDY    36  27  69 N6        29.83R WCI  31
MASON CITY     CLOUDY    30  22  72 N15       29.90R WCI  19
CHARLES CITY   CLOUDY    34  27  75 N15       29.86R WCI  24
OELWEIN        CLOUDY    36  27  69 N10       29.85R WCI  28
$$

Wind speeds are in miles per hour.

 Abbreviations used in the REMARKS:
VSB - Visibility in statute miles
WCI - Wind chill index
HX  - Heat Index



USA.gov is the U.S. government's official web portal to all federal, state and local government web resources and services.